Pauls Valley, Oklahoma
Current Conditions -  °F | °C
As of 3:15 AM on Friday 24 Oct 2014 (Local Time) from KPVJ Reporting Station
Clear Clear  
Wind Chill: 58°   Ceiling: Unl
Heat Index: 58°   Visibility: 10mi
Dew Point: 55°   Wind: 5mph
Humidity: 88%   Direction: 150°SSE
Pressure: 30.1"   Gusts: NA
Location:  34.74°N, 97.22°W
Report Text: KPVJ 240815Z AUTO 15004KT 10SM CLR 15/13 A3010 RMK AO2 T01460126
Loading
Personal Weather Stations






























Interactive Weather Map
Tropical Storm Tracking
New forecast layout! Learn more

10-Day Weather Forecast

Advertisements
Track Severe Weather on mobile